Погода в Инсаре

Россия / Республика Мордовия     54°03′55″N   44°17′34″E
темп.,
°C
ветер,
м/с
пор.,
м/с
влажн.,
%
обл.,
%
осадки,
мм/ч
давл.,
гПа
погр.,
м
14 июня, пн
пн1400:00+15юз2293100 0.0 101227
03:00+14ююз12940 0.0 101311
06:00+17ю12905 0.0 1014114
09:00+21ююз12794 0.8 1014381
12:00+23ююз2266100 1.6 10151061
15:00+23ю2266100 1.6 10151134
18:00+21ююв2384100 1.4 1015107
21:00+17ююв33945 1.7 101543
15 июня, вт
вт1500:00+15ююв22955 0.0 101530
03:00+15вюв119370 0.0 101511
06:00+17вюв128887 0.0 1014116
09:00+21в237773 0.0 1014588
12:00+20в3585100 0.8 1013252
15:00+20всв358493 0.9 1012311
18:00+22в358636 1.3 1010374
21:00+18св3488100 2.4 101048
16 июня, ср
ср1600:00+17ссв369341 0.0 100893
03:00+15ссв379691 1.1 1008139
06:00+18с37945 0.0 1007227
09:00+22с45806 0.0 1007640
12:00+25ссз456926 0.4 10071266
15:00+24сз467449 3.6 1008991
18:00+21ссз598514 3.4 1009366
21:00+18ссз511945 3.6 1012456
17 июня, чт
чт1700:00+15с412952 0.0 1014459
03:00+12ссз310960 0.0 1017226
06:00+14с47904 0.0 1018235
09:00+18с46660 0.0 1019613
12:00+20с56530 0.0 10201692
15:00+21ссз57600 0.0 10211841
18:00+19с47710 0.0 1022348
21:00+13ссв23840 0.0 102332
18 июня, пт
пт1800:00+12с33780 0.0 102429
03:00+11с22790 0.0 102520
06:00+14с25800 0.0 1026140
09:00+19ссв34650 0.0 1026526
12:00+21св355239 0.0 10261755
15:00+22св34535 0.0 10261662
18:00+21в22710 0.0 1026335
21:00+16ююв1175100 0.0 102611